Back to catalog

STARLINK-2106

AliveCommunicationsVLEO
NORAD 47386·PAYLOAD·🇺🇸 United States

Launched Jan 20, 2021 from Cape Canaveral Space Force Station

Loading…

Next Passes (next 24 hours)

TLE

FreshSource: CelesTrak SupGP

Epoch: Sep 14, 2026, 14:22 UTC

1 47386C 21005AP  26257.59909722 -.00030946  00000+0 -99564-3 0  2577
2 47386  53.1572 238.3097 0001221  69.6960 320.4350 15.31701079    19

Track STARLINK-2106 in real time with AllMySat

Download on the App Store